{"data":{"norad_id":52557,"intl_designator":"2022-051AA","name":"STARLINK-3943","alt_names":[],"object_type":"PAYLOAD","status":"ACTIVE","operator":null,"country":"US","launch_date":"2022-05-13","launch_site_code":"AFWTR","launch_vehicle":null,"mission":null,"orbit_class":"UNKNOWN","rcs_meters":null,"size_class":null,"mass_kg":null,"dimensions":null,"purposes":["comms"],"wikipedia_slug":null,"has_3d_model":false,"image_url":null,"decayed_at":null,"tle_current":{"epoch":"2026-09-19T21:13:39.459072Z","epoch_age_seconds":116539,"freshness":"FRESH","line1":"1 52557U 22051AA  26262.88448448  .00000898  00000+0  37706-4 0  9991","line2":"2 52557  53.1603 324.9533 0000982  74.8644 285.2467 15.34389624240932","mean_motion":15.34389624,"eccentricity":9.82e-5,"inclination_deg":53.1603,"raan_deg":324.9533,"arg_perigee_deg":74.8644,"mean_anomaly_deg":285.2467,"bstar":3.7706e-5,"rev_number":24093,"period_min":93.848392707849,"perigee_km":462.06230649948,"apogee_km":463.4058535796,"semimajor_km":6840.8710800395,"source":"CELESTRAK","updated_at":"2026-09-20T09:00:40.062005Z"}}}